Flag for U.S.A. Weather past 2 weeks in Columbia, South Carolina, U.S.A.

Now
77 °F

Passing clouds.


Feels Like: 79 °F
Forecast: 72 / 89 °F
Wind: 5 mph from North

Location: Columbia Owens Downtown Airport

Current Time: Jul 5, 2015 at 9:22:15 AM

Latest Report: Jul 5, 2015 at 8:53 AM


Visibility: 10 mi

Pressure: 30.13 "Hg

Humidity: 79%

Dew point: 70 °F

Location of ColumbiaLocation

Historic Weather in Columbia — Graph

°F

Columbia temperature yesterday

Maximum temperature yesterday: 88 °F (at 4:53 PM)
Minimum temperature yesterday: 71 °F (at 5:53 AM)
Average temperature yesterday: 80 °F

Past Weeks' High & Low Weather Summary

 TemperatureHumidityPressure
High100 °F (Jun 26, 4:53 PM)91% (Jun 28, 3:53 AM)30.13 "Hg (Jun 28, 3:53 AM)
Low66 °F (Jun 29, 6:53 AM)27% (Jun 29, 3:53 PM)29.77 "Hg (Jun 27, 5:53 PM)
Average82 °F65%29.98 "Hg
* Reported Jun 20 7:53 AM — Jul 5 7:53 AM, Columbia, Weather by CustomWeather, © 2015

Note: Actual official high and low records may vary slightly from our data, if they occured in-between our weather recording intervals... More about our weather records

Advertising

Columbia weather history for previous 24 hours

 ConditionsComfort  
Time TempWeatherWind HumidityBarometerVisibility
7:53 AM
Sun, Jul 5
73 °FSunny.5 mph88%30.13 "Hg10 mi
6:53 AM72 °FClear.No wind87%30.11 "Hg10 mi
5:53 AM72 °FClear.No wind87%30.11 "Hg10 mi
4:53 AM73 °FClear.No wind84%30.09 "Hg10 mi
3:53 AM74 °FClear.3 mph82%30.08 "Hg10 mi
2:53 AM74 °FClear.3 mph82%30.08 "Hg10 mi
1:53 AM75 °FClear.No wind76%30.08 "Hg10 mi
12:53 AM76 °FClear.5 mph72%30.08 "Hg10 mi
11:53 PM
Sat, Jul 4
77 °FClear.7 mph71%30.09 "Hg10 mi
10:53 PM79 °FClear.7 mph69%30.08 "Hg10 mi
9:53 PM82 °FClear.5 mph65%30.06 "Hg10 mi
8:53 PM84 °FSunny.7 mph61%30.04 "Hg10 mi
7:53 PM86 °FSunny.7 mph57%30.01 "Hg10 mi
6:53 PM88 °FPassing clouds.9 mph52%30.01 "Hg10 mi
5:53 PM88 °FPassing clouds.12 mph54%30.02 "Hg10 mi
4:53 PM88 °FSunny.9 mph52%30.02 "Hg10 mi
3:53 PM87 °FSunny.10 mph50%30.02 "Hg10 mi
2:53 PM85 °FSunny.9 mph53%30.04 "Hg10 mi
1:53 PM84 °FSunny.12 mph55%30.08 "Hg10 mi
12:53 PM83 °FSunny.9 mph57%30.08 "Hg10 mi
11:53 AM80 °FSunny.9 mph64%30.08 "Hg10 mi
10:53 AM78 °FSunny.7 mph71%30.06 "Hg10 mi
9:53 AM76 °FSunny.8 mph77%30.05 "Hg10 mi
Weather by CustomWeather, © 2015

See weather overviewHow to use our weather pages